When you browse on this site, cookies collect data to enhance your experience and personalize the content and advertising you see.
Visit our Privacy Policy to learn more. By continuing to use the site, you agree to this use of cookies and data.
  • In United Kingdom
  • List of Countries
  • For 7 days
  • Water Temperature
  • Weather Map
  • Weather Widgets
  • user-avatar
    Login

    Hourly Weather Kandi

    Today, 21 February, Friday

    Time Temperature Precipitation Wind Pressure Humidity
    00:00 +26°C° 0 mm 2 mps 736 mmHg 17%
    01:00 +26°C° 0 mm 2 mps 736 mmHg 18%
    02:00 +25°C° 0 mm 2 mps 735 mmHg 18%
    03:00 +24°C° 0 mm 2 mps 735 mmHg 19%
    04:00 +24°C° 0 mm 2 mps 735 mmHg 19%
    05:00 +23°C° 0 mm 2 mps 736 mmHg 20%
    06:00 +21°C° 0 mm 2 mps 736 mmHg 20%
    13:00 +42°C° 0 mm 3 mps 735 mmHg 6%
    14:00 +42°C° 0 mm 2 mps 735 mmHg 6%
    15:00 +42°C° 0 mm 2 mps 734 mmHg 6%
    16:00 +40°C° 0 mm 2 mps 734 mmHg 7%
    17:00 +38°C° 0 mm 2 mps 734 mmHg 8%
    18:00 +36°C° 0 mm 2 mps 734 mmHg 9%
    19:00 +34°C° 0 mm 2 mps 735 mmHg 9%
    20:00 +32°C° 0 mm 2 mps 735 mmHg 10%
    21:00 +30°C° 0 mm 2 mps 736 mmHg 11%
    22:00 +30°C° 0 mm 2 mps 736 mmHg 12%
    23:00 +29°C° 0 mm 2 mps 736 mmHg 12%

    Tomorrow, 22 February, Saturday

    Time Temperature Precipitation Wind Pressure Humidity
    00:00 +28°C° 0 mm 2 mps 735 mmHg 13%
    01:00 +28°C° 0 mm 2 mps 735 mmHg 13%
    02:00 +27°C° 0 mm 2 mps 735 mmHg 14%
    03:00 +27°C° 0 mm 2 mps 735 mmHg 15%
    04:00 +26°C° 0 mm 2 mps 736 mmHg 15%
    05:00 +26°C° 0 mm 3 mps 736 mmHg 15%
    06:00 +26°C° 0 mm 3 mps 736 mmHg 15%
    07:00 +28°C° 0 mm 3 mps 737 mmHg 14%
    08:00 +31°C° 0 mm 3 mps 737 mmHg 12%
    09:00 +34°C° 0 mm 4 mps 738 mmHg 11%
    10:00 +37°C° 0 mm 4 mps 737 mmHg 10%
    11:00 +40°C° 0 mm 4 mps 737 mmHg 9%
    12:00 +43°C° 0 mm 3 mps 736 mmHg 8%
    13:00 +43°C° 0 mm 3 mps 736 mmHg 8%
    14:00 +44°C° 0 mm 3 mps 735 mmHg 8%
    15:00 +45°C° 0 mm 3 mps 734 mmHg 8%
    16:00 +41°C° 0 mm 2 mps 734 mmHg 10%
    17:00 +39°C° 0 mm 2 mps 734 mmHg 11%
    18:00 +37°C° 0 mm 2 mps 734 mmHg 12%
    19:00 +36°C° 0 mm 2 mps 735 mmHg 13%
    20:00 +34°C° 0 mm 2 mps 735 mmHg 14%
    21:00 +33°C° 0 mm 3 mps 736 mmHg 15%
    22:00 +31°C° 0 mm 3 mps 736 mmHg 15%
    23:00 +30°C° 0 mm 3 mps 736 mmHg 15%

    Day after tomorrow, 23 February, Sunday

    Time Temperature Precipitation Wind Pressure Humidity
    00:00 +30°C° 0 mm 3 mps 736 mmHg 16%
    01:00 +29°C° 0 mm 3 mps 736 mmHg 15%
    02:00 +29°C° 0 mm 3 mps 736 mmHg 15%
    03:00 +28°C° 0 mm 3 mps 736 mmHg 14%
    04:00 +27°C° 0 mm 3 mps 736 mmHg 14%
    05:00 +27°C° 0 mm 2 mps 737 mmHg 14%
    06:00 +26°C° 0 mm 2 mps 737 mmHg 14%
    07:00 +28°C° 0 mm 3 mps 738 mmHg 13%
    08:00 +31°C° 0 mm 3 mps 739 mmHg 11%
    09:00 +34°C° 0 mm 4 mps 739 mmHg 10%
    10:00 +36°C° 0 mm 4 mps 739 mmHg 9%
    11:00 +40°C° 0 mm 4 mps 738 mmHg 8%
    12:00 +42°C° 0 mm 4 mps 738 mmHg 7%
    13:00 +43°C° 0 mm 4 mps 737 mmHg 8%
    14:00 +43°C° 0 mm 4 mps 736 mmHg 8%
    15:00 +44°C° 0 mm 4 mps 736 mmHg 8%
    16:00 +42°C° 0 mm 3 mps 736 mmHg 9%
    17:00 +38°C° 0 mm 3 mps 736 mmHg 10%
    18:00 +36°C° 0 mm 2 mps 736 mmHg 12%
    19:00 +35°C° 0 mm 2 mps 736 mmHg 12%
    20:00 +34°C° 0 mm 3 mps 737 mmHg 13%
    21:00 +31°C° 0 mm 3 mps 737 mmHg 14%
    22:00 +31°C° 0 mm 3 mps 737 mmHg 13%
    23:00 +30°C° 0 mm 3 mps 737 mmHg 13%

    24 February, Monday

    Time Temperature Precipitation Wind Pressure Humidity
    00:00 +30°C° 0 mm 3 mps 737 mmHg 12%
    01:00 +29°C° 0 mm 3 mps 737 mmHg 12%
    02:00 +28°C° 0 mm 3 mps 737 mmHg 12%
    03:00 +28°C° 0 mm 3 mps 737 mmHg 12%
    04:00 +27°C° 0 mm 3 mps 737 mmHg 12%
    05:00 +26°C° 0 mm 3 mps 738 mmHg 13%
    06:00 +25°C° 0 mm 3 mps 738 mmHg 13%
    07:00 +27°C° 0 mm 3 mps 739 mmHg 12%
    08:00 +29°C° 0 mm 4 mps 739 mmHg 10%
    09:00 +32°C° 0 mm 5 mps 740 mmHg 9%
    10:00 +34°C° 0 mm 5 mps 739 mmHg 8%
    11:00 +36°C° 0 mm 5 mps 739 mmHg 7%
    12:00 +39°C° 0 mm 5 mps 738 mmHg 6%
    13:00 +39°C° 0 mm 5 mps 737 mmHg 6%
    14:00 +40°C° 0 mm 5 mps 736 mmHg 6%
    15:00 +41°C° 0 mm 4 mps 735 mmHg 6%
    16:00 +38°C° 0 mm 4 mps 735 mmHg 7%
    17:00 +36°C° 0 mm 3 mps 736 mmHg 8%
    18:00 +34°C° 0 mm 2 mps 736 mmHg 9%
    19:00 +31°C° 0 mm 2 mps 736 mmHg 10%
    20:00 +30°C° 0 mm 3 mps 737 mmHg 10%
    21:00 +28°C° 0 mm 3 mps 737 mmHg 11%
    22:00 +27°C° 0 mm 3 mps 737 mmHg 12%
    23:00 +26°C° 0 mm 2 mps 737 mmHg 12%

    25 February, Tuesday

    Time Temperature Precipitation Wind Pressure Humidity
    00:00 +26°C° 0 mm 2 mps 737 mmHg 13%
    01:00 +25°C° 0 mm 2 mps 737 mmHg 14%
    02:00 +24°C° 0 mm 2 mps 737 mmHg 15%
    03:00 +23°C° 0 mm 2 mps 737 mmHg 15%
    04:00 +21°C° 0 mm 2 mps 737 mmHg 16%
    05:00 +21°C° 0 mm 3 mps 737 mmHg 17%
    06:00 +20°C° 0 mm 3 mps 738 mmHg 17%
    07:00 +22°C° 0 mm 3 mps 738 mmHg 15%
    08:00 +26°C° 0 mm 4 mps 739 mmHg 13%
    09:00 +28°C° 0 mm 4 mps 739 mmHg 11%
    10:00 +30°C° 0 mm 4 mps 739 mmHg 10%
    11:00 +34°C° 0 mm 4 mps 738 mmHg 9%
    12:00 +36°C° 0 mm 4 mps 738 mmHg 7%
    13:00 +37°C° 0 mm 3 mps 737 mmHg 7%
    14:00 +38°C° 0 mm 3 mps 736 mmHg 7%
    15:00 +38°C° 0 mm 3 mps 735 mmHg 7%
    16:00 +36°C° 0 mm 2 mps 735 mmHg 8%
    17:00 +34°C° 0 mm 2 mps 735 mmHg 9%
    18:00 +31°C° 0 mm 2 mps 735 mmHg 10%
    19:00 +30°C° 0 mm 2 mps 736 mmHg 11%
    20:00 +28°C° 0 mm 2 mps 736 mmHg 12%
    21:00 +27°C° 0 mm 2 mps 736 mmHg 14%
    22:00 +26°C° 0 mm 2 mps 736 mmHg 14%
    23:00 +25°C° 0 mm 2 mps 736 mmHg 15%

    26 February, Wednesday

    Time Temperature Precipitation Wind Pressure Humidity
    00:00 +24°C° 0 mm 2 mps 736 mmHg 16%
    01:00 +23°C° 0 mm 2 mps 736 mmHg 16%
    02:00 +23°C° 0 mm 2 mps 736 mmHg 17%
    03:00 +21°C° 0 mm 2 mps 735 mmHg 17%
    04:00 +21°C° 0 mm 2 mps 736 mmHg 18%
    05:00 +20°C° 0 mm 2 mps 736 mmHg 19%
    06:00 +19°C° 0 mm 2 mps 736 mmHg 20%
    07:00 +23°C° 0 mm 2 mps 737 mmHg 18%
    08:00 +26°C° 0 mm 2 mps 737 mmHg 16%
    09:00 +29°C° 0 mm 3 mps 738 mmHg 13%
    10:00 +33°C° 0 mm 3 mps 737 mmHg 12%
    11:00 +36°C° 0 mm 2 mps 737 mmHg 10%
    12:00 +39°C° 0 mm 2 mps 737 mmHg 8%
    13:00 +40°C° 0 mm 2 mps 736 mmHg 8%
    14:00 +42°C° 0 mm 1 mps 735 mmHg 7%
    15:00 +40°C° 0 mm 0 mps 734 mmHg 6%
    16:00 +40°C° 0 mm 1 mps 734 mmHg 8%
    17:00 +36°C° 0 mm 1 mps 734 mmHg 9%
    18:00 +33°C° 0 mm 1 mps 734 mmHg 10%
    19:00 +32°C° 0 mm 1 mps 735 mmHg 11%
    20:00 +30°C° 0 mm 2 mps 735 mmHg 12%
    21:00 +28°C° 0 mm 2 mps 735 mmHg 14%
    22:00 +28°C° 0 mm 2 mps 736 mmHg 15%
    23:00 +27°C° 0 mm 2 mps 736 mmHg 16%
    Show more